This demonstration page uses our WeatherBlox Daily Observations layout. Learn more.

Left ArrowRight Arrow

44.89941, -97.11507

Hourly Observations for January 1, 2016

Temp ( °F °C ) Dew Point ( °F °C ) Humidity (%) Winds ( mph kmh ) Pressure ( in mb ) Visibility ( mi km ) Precip ( " mm )
12:53 am 00:53 Clear 16 -8.9 11 -11.7 80 80 W 14 22 30.25 1024 10 16 0.00 0.00
1:53 am 01:53 Clear 19 -7.2 13 -10.6 77 77 W 17 28 30.23 1024 10 16 0.00 0.00
2:53 am 02:53 Clear 18 -7.8 12 -11.1 77 77 W 17 28 30.23 1024 10 16 0.00 0.00
3:53 am 03:53 Clear 19 -7.2 12 -11.1 74 74 W 16 26 30.21 1023 10 16 0.00 0.00
4:53 am 04:53 Clear 17 -8.3 11 -11.7 77 77 WSW 15 24 30.18 1022 10 16 0.00 0.00
5:53 am 05:53 Clear 19 -7.2 12 -11.1 74 74 WSW 21 33 30.14 1021 10 16 0.00 0.00
6:53 am 06:53 Clear 22 -5.6 14 -10 71 71 WSW 25 41 30.11 1020 10 16 0.00 0.00
7:53 am 07:53 Clear 22 -5.6 14 -10 71 71 WSW 24 39 30.11 1020 10 16 0.00 0.00
8:53 am 08:53 Sunny 22 -5.6 13 -10.6 68 68 WSW 23 37 30.09 1019 10 16 0.00 0.00
9:53 am 09:53 Sunny 24 -4.4 14 -10 65 65 W 22 35 30.11 1020 10 16 0.00 0.00
10:53 am 10:53 Sunny 26 -3.3 15 -9.4 63 63 WNW 20 31 30.13 1020 10 16 0.00 0.00
11:53 am 11:53 Sunny 27 -2.8 17 -8.3 66 66 WNW 17 28 30.12 1020 10 16 0.00 0.00
12:53 pm 12:53 Sunny 27 -2.8 18 -7.8 69 69 NW 18 30 30.13 1020 10 16 0.00 0.00
1:53 pm 13:53 Sunny 27 -2.8 18 -7.8 69 69 NW 20 31 30.14 1021 10 16 0.00 0.00
2:53 pm 14:53 Sunny 27 -2.8 19 -7.2 72 72 NW 13 20 30.14 1021 10 16 0.00 0.00
3:53 pm 15:53 Sunny 26 -3.3 18 -7.8 71 71 NW 13 20 30.17 1022 10 16 0.00 0.00
4:53 pm 16:53 Sunny 23 -5 17 -8.3 78 78 NW 9 15 30.20 1023 10 16 0.00 0.00
5:53 pm 17:53 Clear 22 -5.6 16 -8.9 78 78 WNW 8 13 30.22 1023 10 16 0.00 0.00
6:53 pm 18:53 Clear 19 -7.2 14 -10 81 81 W 9 15 30.23 1024 10 16 0.00 0.00
7:53 pm 19:53 Clear 20 -6.7 15 -9.4 81 81 WNW 6 9 30.24 1024 10 16 0.00 0.00
8:53 pm 20:53 Clear 18 -7.8 14 -10 84 84 NW 6 9 30.24 1024 10 16 0.00 0.00
9:53 pm 21:53 Clear 17 -8.3 13 -10.6 84 84 WNW 7 11 30.23 1024 10 16 0.00 0.00
10:53 pm 22:53 Clear 17 -8.3 13 -10.6 84 84 WNW 7 11 30.22 1024 10 16 0.00 0.00
11:53 pm 23:53 Clear 12 -11.1 9 -12.8 87 87 W 6 9 30.22 1023 10 16 0.00 0.00

Powered by AerisWeather